Back to Previous

Regional Weather Roundup

000
ASUS44 KLZK 211305
RWRLZK

WEATHER ROUNDUP FOR ARKANSAS
NATIONAL WEATHER SERVICE LITTLE ROCK AR
800 AM CDT TUE OCT 21 2014

NOTE: "FAIR" INDICATES FEW OR NO CLOUDS BELOW 12,000 FEET WITH NO
SIGNIFICANT WEATHER AND/OR OBSTRUCTIONS TO VISIBILITY.

ARZ001-003-010-029-211400-
NORTHWEST ARKANSAS
  
CITY           SKY/WX    TMP DP  RH WIND       PRES   REMARKS
FAYETTEVILLE   FOG       47  47 100 CALM      30.13R VSB 1/4          
FORT SMITH     MOCLDY    57  56  96 CALM      30.11R FOG              
HARRISON       FOG       53  53 100 W5        30.13R VSB 1            
BENTONVILLE    PTCLDY    48  46  93 CALM      30.13R                  
ROGERS         CLOUDY    52  51  97 E3        30.13R VSB<1/4          
SILOAM SPGS    CLOUDY    48  45  87 E5        30.13R VSB<1/4          
HIGHFILL       FOG       49  49 100 CALM      30.12R VSB<1/4          
SPRINGDALE     FOG       50  50 100 CALM      30.14R VSB 1/4          
$$

ARZ004-005-016-211400-
NORTH CENTRAL ARKANSAS
  
CITY           SKY/WX    TMP DP  RH WIND       PRES   REMARKS
BATESVILLE     CLEAR     55  54  94 NW5       30.10R                  
FLIPPIN        CLOUDY    50  46  87 CALM      30.12R VSB<1/4          
MTN HOME       FOG       49  49 100 CALM      30.11R VSB<1/4          
$$

ARZ040-041-211400-
WEST CENTRAL ARKANSAS
  
CITY           SKY/WX    TMP DP  RH WIND       PRES   REMARKS
MENA           CLOUDY    57  55  94 CALM      30.11R                  
MOUNT IDA      MOCLDY    54  53  97 CALM      30.08R FOG              
$$

ARZ009-017-025-026-028-211400-
NORTHEAST ARKANSAS
  
CITY           SKY/WX    TMP DP  RH WIND       PRES   REMARKS
CORNING        FAIR      50  50 100 CALM      30.09R                  
JONESBORO      CLEAR     53  48  83 CALM      30.08R                  
NEWPORT        CLEAR     52  51  96 NW5       30.11R                  
WALNUT RIDGE   CLEAR     52  46  82 CALM      30.08R                  
BLYTHEVILLE    CLEAR     51  50  96 NW3       30.08R                  
$$

ARZ022-023-033-042-044-211400-
CENTRAL ARKANSAS
  
CITY           SKY/WX    TMP DP  RH WIND       PRES   REMARKS
LITTLE ROCK    CLEAR     55  51  86 W3        30.10R                  
N LITTLE ROCK    N/A     58  57  98 NW5       30.10R                  
JACKSONVILLE   CLEAR     50  49  98 W1        30.10R                  
SEARCY         CLEAR     58  55  90 N5        30.10R                  
HOT SPRINGS    LGT RAIN  55  55 100 CALM      30.11R VSB<1/4          
RUSSELLVILLE   FOG       52  51  97 CALM      30.10R VSB<1/4          
$$

ARZ036-211400-
EAST ARKANSAS
  
CITY           SKY/WX    TMP DP  RH WIND       PRES   REMARKS
WEST MEMPHIS   CLEAR     53  53 100 CALM      30.07R FOG              
$$

ARZ050-053-066-070-073-211400-
SOUTHWEST ARKANSAS
  
CITY           SKY/WX    TMP DP  RH WIND       PRES   REMARKS
ARKADELPHIA    FAIR      57  57 100 CALM      30.10R FOG              
CAMDEN         MOCLDY    59  55  88 CALM      30.09R FOG              
TEXARKANA      CLOUDY    59  57  93 CALM      30.10R FOG              
EL DORADO      CLOUDY    59  57  93 CALM      30.10R FOG              
DE QUEEN       FOG       54  53  97 CALM      30.08R VSB 1/4          
$$

ARZ056-057-069-211400-
SOUTHEAST ARKANSAS
  
CITY           SKY/WX    TMP DP  RH WIND       PRES   REMARKS
PINE BLUFF     CLEAR     54  53  97 CALM      30.09R FOG              
STUTTGART      CLOUDY    54  52  94 CALM      30.09S VSB 1/4          
MONTICELLO     CLOUDY    59  57  93 CALM      30.08R                  

$$



USA.gov is the U.S. government's official web portal to all federal, state and local government web resources and services.